GIA869 VTBS-WITT

Flight info

Callsign GIA869
Flight time 1h 47m
Altitude 40000
Route UKERA1G UKERA G458 MENEX Y8 IKERA G458 PUT P627 IGEBO P574 ANSAX
Aircraft MD11/H-SDE1E2E3FGHIJ2J3J4J5M1RWXY/LB1D1

Departure

Time 2026-04-19 04:56
Airport Suvarnabhumi Airport (VTBS)

Arrival

Time 2026-04-19 06:43
Airport Sultan Iskandar Muda International Airport (WITT)
Time Latitude Longitude Altitude Speed Heading
2026-04-19 04:56 13.44307 100.62048 13408 ft 381 kts 244°
2026-04-19 04:56 13.43067 100.59637 14342 ft 385 kts 239°
2026-04-19 04:56 13.41610 100.57305 15166 ft 390 kts 234°
2026-04-19 04:56 13.39899 100.55112 15968 ft 396 kts 227°
2026-04-19 04:57 13.37974 100.53112 16742 ft 402 kts 223°
2026-04-19 04:57 13.35901 100.51162 17490 ft 408 kts 221°
2026-04-19 04:57 13.33751 100.49224 18244 ft 414 kts 221°
2026-04-19 04:57 13.31562 100.47274 18917 ft 418 kts 221°
2026-04-19 04:58 13.29354 100.45310 19569 ft 421 kts 221°
2026-04-19 04:58 13.27137 100.43331 20212 ft 424 kts 221°
2026-04-19 04:58 13.24902 100.41330 20850 ft 428 kts 222°
2026-04-19 04:58 13.22654 100.39306 21498 ft 431 kts 222°
2026-04-19 04:59 13.20394 100.37276 22178 ft 434 kts 222°
2026-04-19 04:59 13.18105 100.35231 22850 ft 438 kts 222°
2026-04-19 04:59 13.15798 100.33168 23500 ft 442 kts 222°
2026-04-19 04:59 13.13474 100.31088 24120 ft 444 kts 222°
2026-04-19 05:00 13.11141 100.28997 24738 ft 448 kts 222°
2026-04-19 05:00 13.09575 100.27594 25148 ft 451 kts 222°
2026-04-19 05:00 13.06402 100.24752 25996 ft 456 kts 223°
2026-04-19 05:00 13.04817 100.23329 26416 ft 458 kts 223°
2026-04-19 05:01 13.02403 100.21171 27030 ft 462 kts 221°
2026-04-19 05:01 12.99756 100.19272 27630 ft 468 kts 210°
2026-04-19 05:01 12.96723 100.17990 28218 ft 476 kts 198°
2026-04-19 05:01 12.93464 100.17288 28775 ft 483 kts 191°
2026-04-19 05:02 12.90109 100.16849 29342 ft 488 kts 189°
2026-04-19 05:02 12.86712 100.16450 29898 ft 493 kts 189°
2026-04-19 05:02 12.83300 100.16000 30359 ft 496 kts 190°
2026-04-19 05:02 12.79887 100.15483 30948 ft 495 kts 192°
2026-04-19 05:03 12.76504 100.14922 31552 ft 492 kts 192°
2026-04-19 05:03 12.73133 100.14333 32140 ft 490 kts 192°
2026-04-19 05:03 12.69779 100.13728 32720 ft 488 kts 192°
2026-04-19 05:03 12.66450 100.13121 33340 ft 486 kts 192°
2026-04-19 05:04 12.63114 100.12512 33938 ft 484 kts 192°
2026-04-19 05:04 12.59811 100.11912 34442 ft 482 kts 192°
2026-04-19 05:04 12.56508 100.11315 34918 ft 481 kts 192°
2026-04-19 05:04 12.53216 100.10722 35378 ft 480 kts 192°
2026-04-19 05:05 12.49931 100.10132 35814 ft 479 kts 192°
2026-04-19 05:05 12.46698 100.09552 36250 ft 477 kts 192°
2026-04-19 05:05 12.43428 100.08966 36673 ft 476 kts 192°
2026-04-19 05:05 12.40129 100.08375 37095 ft 475 kts 192°
2026-04-19 05:06 12.36918 100.07799 37487 ft 474 kts 192°
2026-04-19 05:06 12.33667 100.07217 37882 ft 473 kts 192°
2026-04-19 05:06 12.30424 100.06635 38268 ft 472 kts 192°
2026-04-19 05:06 12.27187 100.06056 38628 ft 471 kts 192°
2026-04-19 05:07 12.23956 100.05477 38931 ft 471 kts 192°
2026-04-19 05:07 12.20731 100.04899 39220 ft 470 kts 192°
2026-04-19 05:07 12.17520 100.04325 39514 ft 469 kts 192°
2026-04-19 05:07 12.14297 100.03748 39770 ft 469 kts 192°
2026-04-19 05:08 12.04629 100.02020 39877 ft 471 kts 192°
2026-04-19 05:09 11.98225 100.00624 39880 ft 470 kts 197°
2026-04-19 05:09 11.91941 99.98801 39880 ft 470 kts 199°
2026-04-19 05:10 11.85709 99.96934 39879 ft 470 kts 198°
2026-04-19 05:10 11.79421 99.95085 39879 ft 470 kts 198°
2026-04-19 05:11 11.73125 99.93254 39879 ft 470 kts 198°
2026-04-19 05:11 11.66834 99.91428 39892 ft 471 kts 198°
2026-04-19 05:12 11.60531 99.89600 39889 ft 471 kts 198°
2026-04-19 05:12 11.54232 99.87774 39889 ft 471 kts 198°
2026-04-19 05:13 11.47924 99.85945 39886 ft 471 kts 198°
2026-04-19 05:13 11.41624 99.84119 39884 ft 471 kts 198°
2026-04-19 05:14 11.35314 99.82291 39888 ft 471 kts 198°
2026-04-19 05:14 11.29048 99.80477 39886 ft 471 kts 198°
2026-04-19 05:15 11.22747 99.78654 39889 ft 471 kts 198°
2026-04-19 05:15 11.16435 99.76830 39889 ft 471 kts 198°
2026-04-19 05:16 11.10126 99.74927 39879 ft 477 kts 198°
2026-04-19 05:16 11.03764 99.72928 39886 ft 478 kts 198°
2026-04-19 05:17 10.97406 99.70924 39890 ft 478 kts 198°
2026-04-19 05:17 10.91041 99.68926 39886 ft 478 kts 198°
2026-04-19 05:18 10.84685 99.66936 39884 ft 478 kts 198°
2026-04-19 05:18 10.78330 99.64947 39880 ft 478 kts 198°
2026-04-19 05:19 10.71969 99.62957 39883 ft 478 kts 198°
2026-04-19 05:19 10.65610 99.60969 39879 ft 478 kts 198°
2026-04-19 05:20 10.59252 99.58982 39884 ft 478 kts 198°
2026-04-19 05:20 10.52904 99.56998 39875 ft 478 kts 198°
2026-04-19 05:21 10.46593 99.55028 39884 ft 477 kts 198°
2026-04-19 05:21 10.40240 99.53044 39883 ft 477 kts 198°
2026-04-19 05:22 10.33889 99.51063 39886 ft 477 kts 198°
2026-04-19 05:22 10.27622 99.49112 39875 ft 454 kts 198°
2026-04-19 05:22 10.24676 99.48196 39869 ft 433 kts 198°
2026-04-19 05:23 10.21858 99.47319 39879 ft 415 kts 198°
2026-04-19 05:23 10.16407 99.45620 39878 ft 408 kts 198°
2026-04-19 05:24 10.10983 99.43928 39888 ft 407 kts 198°
2026-04-19 05:24 10.05569 99.42241 39884 ft 407 kts 198°
2026-04-19 05:25 10.00150 99.40554 39880 ft 407 kts 198°
2026-04-19 05:25 9.94738 99.38870 39882 ft 407 kts 198°
2026-04-19 05:26 9.89319 99.37183 39877 ft 407 kts 198°
2026-04-19 05:26 9.83900 99.35498 39884 ft 407 kts 198°
2026-04-19 05:27 9.78484 99.33814 39882 ft 407 kts 198°
2026-04-19 05:27 9.73113 99.32145 39876 ft 407 kts 198°
2026-04-19 05:28 9.67698 99.30463 39878 ft 407 kts 198°
2026-04-19 05:28 9.62288 99.28783 39875 ft 407 kts 198°
2026-04-19 05:29 9.56880 99.27104 39873 ft 407 kts 198°
2026-04-19 05:29 9.51466 99.25422 39874 ft 407 kts 198°
2026-04-19 05:30 9.46050 99.23731 39872 ft 407 kts 198°
2026-04-19 05:30 9.40638 99.22039 39865 ft 407 kts 198°
2026-04-19 05:31 9.35260 99.20358 39866 ft 407 kts 198°
2026-04-19 05:31 9.29848 99.18668 39857 ft 407 kts 198°
2026-04-19 05:32 9.24441 99.16980 39858 ft 408 kts 198°
2026-04-19 05:32 9.19022 99.15288 39862 ft 407 kts 198°
2026-04-19 05:33 9.13617 99.13533 39856 ft 407 kts 204°
2026-04-19 05:33 9.11119 99.12220 39859 ft 404 kts 215°
2026-04-19 05:33 9.08853 99.10541 39859 ft 404 kts 220°
2026-04-19 05:34 9.04582 99.06915 39866 ft 404 kts 221°
2026-04-19 05:34 9.00284 99.03244 39861 ft 404 kts 221°
2026-04-19 05:35 8.95946 98.99630 39865 ft 404 kts 220°
2026-04-19 05:35 8.91598 98.96035 39863 ft 404 kts 220°
2026-04-19 05:36 8.87238 98.92445 39867 ft 404 kts 220°
2026-04-19 05:36 8.82880 98.88852 39872 ft 404 kts 220°
2026-04-19 05:37 8.78510 98.85286 39873 ft 404 kts 219°
2026-04-19 05:37 8.74128 98.81725 39870 ft 403 kts 220°
2026-04-19 05:38 8.69759 98.78164 39879 ft 404 kts 219°
2026-04-19 05:38 8.65378 98.74605 39876 ft 404 kts 220°
2026-04-19 05:39 8.61037 98.71068 39876 ft 403 kts 220°
2026-04-19 05:39 8.56669 98.67512 39874 ft 403 kts 220°
2026-04-19 05:40 8.52294 98.63957 39871 ft 403 kts 219°
2026-04-19 05:40 8.47937 98.60401 39876 ft 403 kts 220°
2026-04-19 05:41 8.43584 98.56840 39880 ft 402 kts 219°
2026-04-19 05:41 8.39234 98.53273 39879 ft 402 kts 220°
2026-04-19 05:42 8.34882 98.49703 39876 ft 402 kts 220°
2026-04-19 05:42 8.30569 98.46169 39885 ft 402 kts 220°
2026-04-19 05:43 8.26231 98.42617 39882 ft 402 kts 220°
2026-04-19 05:43 8.21889 98.39063 39877 ft 401 kts 220°
2026-04-19 05:44 8.17548 98.35514 39888 ft 401 kts 220°
2026-04-19 05:44 8.13215 98.31968 39883 ft 401 kts 220°
2026-04-19 05:45 8.09453 98.27868 39888 ft 398 kts 238°
2026-04-19 05:45 8.06651 98.23046 39884 ft 399 kts 242°
2026-04-19 05:46 8.03952 98.18148 39884 ft 399 kts 241°
2026-04-19 05:46 8.01203 98.13282 39886 ft 399 kts 240°
2026-04-19 05:47 7.98440 98.08462 39886 ft 399 kts 240°
2026-04-19 05:47 7.95650 98.03616 39887 ft 399 kts 240°
2026-04-19 05:48 7.92859 97.98773 39893 ft 399 kts 240°
2026-04-19 05:48 7.90067 97.93929 39885 ft 399 kts 240°
2026-04-19 05:49 7.87278 97.89091 39887 ft 399 kts 240°
2026-04-19 05:49 7.84475 97.84250 39889 ft 399 kts 240°
2026-04-19 05:50 7.81664 97.79412 39889 ft 400 kts 240°
2026-04-19 05:50 7.78856 97.74580 39888 ft 400 kts 240°
2026-04-19 05:51 7.76491 97.70575 39890 ft 400 kts 239°
2026-04-19 05:51 7.73073 97.65052 39889 ft 400 kts 238°
2026-04-19 05:52 7.70592 97.61074 39894 ft 400 kts 238°
2026-04-19 05:52 7.67639 97.56332 39894 ft 399 kts 238°
2026-04-19 05:53 7.64702 97.51575 39890 ft 399 kts 239°
2026-04-19 05:53 7.61869 97.46754 39890 ft 399 kts 240°
2026-04-19 05:54 7.59088 97.41957 39892 ft 399 kts 240°
2026-04-19 05:54 7.56281 97.37121 39891 ft 399 kts 240°
2026-04-19 05:55 7.53472 97.32293 39894 ft 399 kts 240°
2026-04-19 05:55 7.50659 97.27461 39887 ft 399 kts 240°
2026-04-19 05:56 7.47848 97.22635 39891 ft 400 kts 240°
2026-04-19 05:56 7.45031 97.17799 39894 ft 400 kts 240°
2026-04-19 05:57 7.42216 97.12969 39892 ft 400 kts 240°
2026-04-19 05:57 7.39392 97.08126 39891 ft 401 kts 240°
2026-04-19 05:58 7.36586 97.03313 39886 ft 401 kts 240°
2026-04-19 05:58 7.33756 96.98463 39890 ft 401 kts 240°
2026-04-19 05:59 7.30925 96.93611 39894 ft 401 kts 240°
2026-04-19 05:59 7.28139 96.88839 39891 ft 385 kts 240°
2026-04-19 06:00 7.25460 96.84201 39889 ft 382 kts 240°
2026-04-19 06:00 7.22798 96.79566 39882 ft 382 kts 240°
2026-04-19 06:01 7.20141 96.74937 39892 ft 382 kts 240°
2026-04-19 06:01 7.17497 96.70332 39889 ft 382 kts 240°
2026-04-19 06:02 7.14840 96.65707 39886 ft 382 kts 240°
2026-04-19 06:02 7.12179 96.61076 39891 ft 382 kts 240°
2026-04-19 06:03 7.09520 96.56451 39891 ft 382 kts 240°
2026-04-19 06:03 7.06857 96.51819 39891 ft 382 kts 240°
2026-04-19 06:04 7.04196 96.47192 39892 ft 382 kts 240°
2026-04-19 06:04 7.01531 96.42560 39891 ft 382 kts 240°
2026-04-19 06:05 6.98865 96.37927 39892 ft 382 kts 240°
2026-04-19 06:05 6.96202 96.33301 39895 ft 382 kts 240°
2026-04-19 06:06 6.93535 96.28669 39890 ft 382 kts 240°
2026-04-19 06:06 6.90870 96.24042 39888 ft 382 kts 240°
2026-04-19 06:06 6.89539 96.21733 39762 ft 379 kts 240°
2026-04-19 06:07 6.88213 96.19431 39094 ft 379 kts 240°
2026-04-19 06:07 6.86918 96.17184 38628 ft 375 kts 240°
2026-04-19 06:07 6.85618 96.14930 38071 ft 371 kts 240°
2026-04-19 06:07 6.84326 96.12693 37498 ft 368 kts 240°
2026-04-19 06:08 6.83046 96.10476 36934 ft 365 kts 240°
2026-04-19 06:08 6.81777 96.08279 36396 ft 361 kts 240°
2026-04-19 06:08 6.80520 96.06100 35863 ft 358 kts 240°
2026-04-19 06:08 6.79274 96.03940 35359 ft 355 kts 240°
2026-04-19 06:09 6.78038 96.01798 34850 ft 353 kts 240°
2026-04-19 06:09 6.76808 95.99667 34270 ft 353 kts 240°
2026-04-19 06:09 6.75580 95.97521 33632 ft 354 kts 240°
2026-04-19 06:09 6.74367 95.95355 32949 ft 356 kts 241°
2026-04-19 06:10 6.73158 95.93175 32262 ft 358 kts 241°
2026-04-19 06:10 6.71945 95.90983 31606 ft 359 kts 241°
2026-04-19 06:10 6.70727 95.88782 30955 ft 361 kts 242°
2026-04-19 06:10 6.69520 95.86601 30305 ft 362 kts 242°
2026-04-19 06:11 6.68290 95.84381 29629 ft 364 kts 242°
2026-04-19 06:11 6.67057 95.82154 28905 ft 365 kts 242°
2026-04-19 06:11 6.65824 95.79929 28183 ft 365 kts 242°
2026-04-19 06:12 6.63345 95.75457 26778 ft 367 kts 242°
2026-04-19 06:12 6.62105 95.73221 26096 ft 367 kts 241°
2026-04-19 06:12 6.60860 95.70975 25404 ft 368 kts 241°
2026-04-19 06:12 6.59613 95.68729 24783 ft 367 kts 241°
2026-04-19 06:13 6.58357 95.66505 24229 ft 363 kts 240°
2026-04-19 06:13 6.57082 95.64323 23713 ft 360 kts 240°
2026-04-19 06:13 6.55813 95.62174 23142 ft 357 kts 240°
2026-04-19 06:13 6.54550 95.60039 22516 ft 354 kts 239°
2026-04-19 06:14 6.53297 95.57921 21935 ft 351 kts 239°
2026-04-19 06:14 6.52054 95.55820 21358 ft 348 kts 239°
2026-04-19 06:14 6.50823 95.53738 20800 ft 345 kts 239°
2026-04-19 06:14 6.49600 95.51668 20257 ft 343 kts 239°
2026-04-19 06:15 6.48385 95.49612 19727 ft 340 kts 239°
2026-04-19 06:15 6.47196 95.47600 19224 ft 338 kts 239°
2026-04-19 06:15 6.45983 95.45548 18726 ft 336 kts 239°
2026-04-19 06:15 6.44807 95.43558 18220 ft 335 kts 239°
2026-04-19 06:16 6.43604 95.41524 17676 ft 332 kts 239°
2026-04-19 06:16 6.42445 95.39564 17165 ft 330 kts 239°
2026-04-19 06:16 6.41281 95.37595 16672 ft 327 kts 239°
2026-04-19 06:16 6.40123 95.35637 16181 ft 324 kts 239°
2026-04-19 06:17 6.38974 95.33693 15708 ft 322 kts 239°
2026-04-19 06:17 6.37833 95.31765 15226 ft 319 kts 239°
2026-04-19 06:17 6.36701 95.29851 14768 ft 317 kts 239°
2026-04-19 06:17 6.35577 95.27951 14322 ft 315 kts 239°
2026-04-19 06:18 6.34460 95.26064 13875 ft 313 kts 239°
2026-04-19 06:18 6.33351 95.24190 13406 ft 311 kts 239°
2026-04-19 06:18 6.32243 95.22341 12911 ft 308 kts 237°
2026-04-19 06:18 6.30977 95.20611 12449 ft 306 kts 228°
2026-04-19 06:19 6.29423 95.19169 11981 ft 303 kts 215°
2026-04-19 06:19 6.27605 95.18126 11526 ft 301 kts 202°
2026-04-19 06:19 6.25614 95.17528 11083 ft 298 kts 189°
2026-04-19 06:19 6.23557 95.17388 10656 ft 295 kts 176°
2026-04-19 06:20 6.21537 95.17693 10240 ft 292 kts 164°
2026-04-19 06:20 6.19654 95.18410 9898 ft 291 kts 152°
2026-04-19 06:20 6.17953 95.19506 9520 ft 289 kts 140°
2026-04-19 06:20 6.16535 95.20914 9154 ft 287 kts 128°
2026-04-19 06:21 6.15429 95.22564 8924 ft 282 kts 120°
2026-04-19 06:21 6.14487 95.24276 8887 ft 284 kts 118°
2026-04-19 06:21 6.13542 95.26051 8882 ft 284 kts 118°
2026-04-19 06:21 6.12624 95.27772 8881 ft 284 kts 118°
2026-04-19 06:22 6.11686 95.29519 8882 ft 284 kts 118°
2026-04-19 06:22 6.10743 95.31263 8886 ft 284 kts 118°
2026-04-19 06:22 6.09796 95.33005 8878 ft 284 kts 118°
2026-04-19 06:22 6.08851 95.34741 8880 ft 284 kts 118°
2026-04-19 06:23 6.07900 95.36481 8880 ft 284 kts 118°
2026-04-19 06:23 6.06949 95.38221 8879 ft 284 kts 118°
2026-04-19 06:23 6.05997 95.39961 8878 ft 284 kts 118°
2026-04-19 06:23 6.05045 95.41700 8875 ft 284 kts 118°
2026-04-19 06:24 6.04095 95.43433 8879 ft 284 kts 118°
2026-04-19 06:24 6.03143 95.45171 8875 ft 284 kts 118°
2026-04-19 06:24 6.02191 95.46909 8878 ft 284 kts 118°
2026-04-19 06:24 6.01239 95.48645 8877 ft 283 kts 118°
2026-04-19 06:25 6.00279 95.50375 8873 ft 283 kts 121°
2026-04-19 06:25 5.99059 95.51921 8876 ft 283 kts 139°
2026-04-19 06:25 5.97373 95.52864 8870 ft 284 kts 164°
2026-04-19 06:25 5.95390 95.52928 8876 ft 286 kts 192°
2026-04-19 06:26 5.93618 95.52052 8875 ft 287 kts 220°
2026-04-19 06:26 5.92460 95.50466 8879 ft 289 kts 248°
2026-04-19 06:26 5.92154 95.48486 8878 ft 290 kts 276°
2026-04-19 06:26 5.92727 95.46556 8880 ft 291 kts 295°
2026-04-19 06:27 5.93658 95.44749 8877 ft 291 kts 299°
2026-04-19 06:27 5.94657 95.42978 8879 ft 291 kts 300°
2026-04-19 06:27 5.95659 95.41210 8875 ft 291 kts 300°
2026-04-19 06:27 5.96754 95.39502 8866 ft 291 kts 310°
2026-04-19 06:28 5.98287 95.38215 8870 ft 289 kts 334°
2026-04-19 06:28 6.00211 95.37735 8875 ft 286 kts
2026-04-19 06:28 6.02122 95.38208 8873 ft 285 kts 29°
2026-04-19 06:28 6.03586 95.39507 8874 ft 283 kts 57°
2026-04-19 06:29 6.04297 95.41334 8881 ft 282 kts 83°
2026-04-19 06:29 6.04109 95.43274 8875 ft 282 kts 109°
2026-04-19 06:29 6.03307 95.45076 8877 ft 284 kts 117°
2026-04-19 06:29 6.02356 95.46814 8877 ft 284 kts 119°
2026-04-19 06:30 6.01386 95.48534 8875 ft 283 kts 119°
2026-04-19 06:30 6.00414 95.50257 8873 ft 283 kts 121°
2026-04-19 06:30 5.99215 95.51820 8867 ft 283 kts 137°
2026-04-19 06:30 5.97536 95.52828 8867 ft 284 kts 162°
2026-04-19 06:31 5.95607 95.52974 8868 ft 285 kts 189°
2026-04-19 06:31 5.93774 95.52179 8868 ft 287 kts 218°
2026-04-19 06:31 5.92540 95.50650 8872 ft 289 kts 245°
2026-04-19 06:31 5.91738 95.48774 8877 ft 290 kts 238°
2026-04-19 06:32 5.90440 95.47303 8461 ft 286 kts 214°
2026-04-19 06:32 5.88639 95.46506 8012 ft 282 kts 195°
2026-04-19 06:32 5.86872 95.45592 7762 ft 294 kts 221°
2026-04-19 06:32 5.85508 95.44032 7671 ft 303 kts 234°
2026-04-19 06:33 5.84383 95.42208 7552 ft 311 kts 241°
2026-04-19 06:33 5.83420 95.40233 7438 ft 317 kts 244°
2026-04-19 06:33 5.82285 95.38317 7319 ft 321 kts 230°
2026-04-19 06:33 5.80607 95.36953 7180 ft 306 kts 203°
2026-04-19 06:34 5.78579 95.36559 7063 ft 293 kts 177°
2026-04-19 06:34 5.76619 95.36820 6721 ft 275 kts 168°
2026-04-19 06:34 5.74787 95.37223 5724 ft 255 kts 165°
2026-04-19 06:34 5.73257 95.37610 5562 ft 204 kts 164°
2026-04-19 06:35 5.71964 95.38003 4913 ft 191 kts 150°
2026-04-19 06:35 5.71099 95.38918 4159 ft 177 kts 111°
2026-04-19 06:35 5.71034 95.40030 3626 ft 150 kts 79°
2026-04-19 06:35 5.71235 95.41050 2937 ft 146 kts 79°
2026-04-19 06:36 5.71422 95.42077 2644 ft 151 kts 79°
2026-04-19 06:36 5.71541 95.43124 2293 ft 151 kts 76°
2026-04-19 06:36 5.72113 95.43947 1869 ft 143 kts 26°
2026-04-19 06:36 5.73043 95.43987 1839 ft 141 kts 335°
2026-04-19 06:37 5.73811 95.43445 1998 ft 146 kts 320°
2026-04-19 06:37 5.74552 95.42740 1891 ft 146 kts 316°
2026-04-19 06:37 5.75220 95.41978 1839 ft 147 kts 296°
2026-04-19 06:37 5.75210 95.40998 1797 ft 146 kts 242°
2026-04-19 06:38 5.74616 95.40146 1984 ft 152 kts 230°
2026-04-19 06:38 5.73858 95.39403 1856 ft 152 kts 219°
2026-04-19 06:38 5.72971 95.38828 1876 ft 153 kts 206°
2026-04-19 06:38 5.71966 95.38465 1885 ft 154 kts 192°
2026-04-19 06:39 5.70902 95.38376 1874 ft 154 kts 176°
2026-04-19 06:39 5.69840 95.38532 1879 ft 155 kts 172°
2026-04-19 06:39 5.68773 95.38680 1900 ft 155 kts 172°
2026-04-19 06:39 5.67704 95.38859 1878 ft 155 kts 168°
2026-04-19 06:40 5.66648 95.39081 1883 ft 156 kts 168°
2026-04-19 06:40 5.65588 95.39297 1878 ft 155 kts 168°
2026-04-19 06:40 5.64527 95.39519 1892 ft 155 kts 168°
2026-04-19 06:40 5.63469 95.39737 1857 ft 156 kts 168°
2026-04-19 06:41 5.62403 95.39957 1798 ft 156 kts 168°
2026-04-19 06:41 5.61346 95.40177 1549 ft 155 kts 169°
2026-04-19 06:41 5.60290 95.40393 1328 ft 155 kts 168°
2026-04-19 06:41 5.59237 95.40615 1138 ft 155 kts 168°
2026-04-19 06:42 5.58191 95.40831 977 ft 152 kts 169°
2026-04-19 06:42 5.57151 95.41041 738 ft 153 kts 167°
2026-04-19 06:42 5.56109 95.41256 566 ft 152 kts 168°
2026-04-19 06:42 5.55084 95.41473 315 ft 153 kts 168°
2026-04-19 06:43 5.54040 95.41677 130 ft 153 kts 168°
2026-04-19 06:43 5.53089 95.41876 86 ft 116 kts 168°
2026-04-19 06:43 5.52492 95.41999 87 ft 59 kts 168°
2026-04-19 06:43 5.52206 95.42058 88 ft 26 kts 168°
2026-04-19 06:44 5.52051 95.42090 88 ft 15 kts 168°
2026-04-19 06:44 5.52028 95.42089 90 ft 1 kts 205°
2026-04-19 06:44 5.52010 95.42062 90 ft 7 kts 240°
2026-04-19 06:44 5.52002 95.42032 87 ft 9 kts 255°
2026-04-19 06:45 5.51981 95.41960 86 ft 2 kts 240°
2026-04-19 06:45 5.51976 95.41958 89 ft 1 kts 216°
2026-04-19 06:45 5.51946 95.41945 88 ft 11 kts 203°
2026-04-19 06:45 5.51922 95.41926 89 ft 3 kts 233°
2026-04-19 06:46 5.51905 95.41891 88 ft 8 kts 248°
2026-04-19 06:46 5.51896 95.41858 85 ft 1 kts 258°
2026-04-19 06:46 5.51891 95.41833 88 ft 6 kts 258°
2026-04-19 06:46 5.51885 95.41806 86 ft 3 kts 258°
2026-04-19 06:47 5.51885 95.41805 85 ft 0 kts 258°